Time,TemperatureF,DewpointF,PressureIn,WindDirection,WindDirectionDegrees,WindSpeedMPH,WindSpeedGustMPH,Humidity,HourlyPrecipIn,Conditions,Clouds,dailyrainin,SolarRadiationWatts/m^2,SoftwareType,DateUTC
2014-10-21 00:02:00,63.0,29.0,-100.00,South,182,8.0,12.0,27,0.00,,,0.00,0.000000,,2014-10-21 06:02:00,
2014-10-21 00:12:00,63.0,29.0,-100.00,South,182,8.0,12.0,27,0.00,,,0.00,0.000000,,2014-10-21 06:12:00,
2014-10-21 00:52:00,65.0,24.0,-100.00,SSW,198,5.0,11.0,21,0.00,,,0.00,0.000000,,2014-10-21 06:52:00,
2014-10-21 01:02:00,65.0,24.0,-100.00,SSW,198,5.0,11.0,21,0.00,,,0.00,0.000000,,2014-10-21 07:02:00,
2014-10-21 01:12:00,65.0,24.0,-100.00,SSW,198,5.0,11.0,21,0.00,,,0.00,0.000000,,2014-10-21 07:12:00,
2014-10-21 01:52:00,65.0,26.0,-100.00,SW,225,5.0,7.0,23,-99.99,,,0.00,0.000000,,2014-10-21 07:52:00,
2014-10-21 02:03:00,65.0,26.0,-100.00,SW,225,5.0,7.0,23,-99.99,,,0.00,0.000000,,2014-10-21 08:03:00,
2014-10-21 02:13:00,65.0,26.0,-100.00,SW,225,5.0,7.0,23,-99.99,,,0.00,0.000000,,2014-10-21 08:13:00,
2014-10-21 02:21:00,61.0,26.0,-100.00,WNW,287,6.0,11.0,26,-99.99,,,0.00,0.000000,,2014-10-21 08:21:00,
2014-10-21 02:52:00,61.0,26.0,-100.00,WNW,287,6.0,11.0,26,-99.99,,,0.00,0.000000,,2014-10-21 08:52:00,
2014-10-21 03:02:00,61.0,26.0,-100.00,WNW,287,6.0,11.0,26,-99.99,,,0.00,0.000000,,2014-10-21 09:02:00,
2014-10-21 03:12:00,61.0,26.0,-100.00,WNW,287,6.0,11.0,26,-99.99,,,0.00,0.000000,,2014-10-21 09:12:00,
2014-10-21 03:21:00,59.0,25.0,-100.00,WNW,292,9.0,11.0,27,0.00,,,0.00,0.000000,,2014-10-21 09:21:00,
2014-10-21 03:53:00,59.0,25.0,-100.00,WNW,292,9.0,11.0,27,0.00,,,0.00,0.000000,,2014-10-21 09:53:00,
2014-10-21 04:04:00,59.0,25.0,-100.00,WNW,292,9.0,11.0,27,0.00,,,0.00,0.000000,,2014-10-21 10:04:00,
2014-10-21 04:13:00,59.0,25.0,-100.00,WNW,292,9.0,11.0,27,0.00,,,0.00,0.000000,,2014-10-21 10:13:00,
2014-10-21 04:21:00,60.0,25.0,-100.00,WNW,295,9.0,14.0,26,0.00,,,0.00,0.000000,,2014-10-21 10:21:00,
2014-10-21 04:53:00,60.0,25.0,-100.00,WNW,295,9.0,14.0,26,0.00,,,0.00,0.000000,,2014-10-21 10:53:00,
2014-10-21 05:03:00,60.0,25.0,-100.00,WNW,295,9.0,14.0,26,0.00,,,0.00,0.000000,,2014-10-21 11:03:00,
2014-10-21 05:12:00,60.0,25.0,-100.00,WNW,295,9.0,14.0,26,0.00,,,0.00,0.000000,,2014-10-21 11:12:00,
2014-10-21 06:21:00,61.0,24.0,-100.00,WSW,240,4.0,6.0,24,-99.99,,,0.00,0.000000,,2014-10-21 12:21:00,
2014-10-21 07:21:00,57.0,22.0,-100.00,ESE,104,8.0,10.0,26,0.00,,,0.00,0.000000,,2014-10-21 13:21:00,
2014-10-21 07:52:00,57.0,22.0,-100.00,ESE,104,8.0,10.0,26,0.00,,,0.00,0.000000,,2014-10-21 13:52:00,
2014-10-21 08:02:00,57.0,22.0,-100.00,ESE,104,8.0,10.0,26,0.00,,,0.00,0.000000,,2014-10-21 14:02:00,
2014-10-21 08:12:00,57.0,22.0,-100.00,ESE,104,8.0,10.0,26,0.00,,,0.00,0.000000,,2014-10-21 14:12:00,
2014-10-21 08:21:00,60.0,28.0,-100.00,South,172,6.0,9.0,29,0.00,,,0.00,26.000000,,2014-10-21 14:21:00,
2014-10-21 08:52:00,60.0,28.0,-100.00,South,172,6.0,9.0,29,0.00,,,0.00,26.000000,,2014-10-21 14:52:00,
2014-10-21 09:02:00,60.0,28.0,-100.00,South,172,6.0,9.0,29,0.00,,,0.00,26.000000,,2014-10-21 15:02:00,
2014-10-21 09:12:00,60.0,28.0,-100.00,South,172,6.0,9.0,29,0.00,,,0.00,26.000000,,2014-10-21 15:12:00,
2014-10-21 09:21:00,57.0,27.0,-100.00,NNW,332,7.0,11.0,32,0.00,,,0.00,86.000000,,2014-10-21 15:21:00,
2014-10-21 09:54:00,57.0,27.0,-100.00,NNW,332,7.0,11.0,32,0.00,,,0.00,86.000000,,2014-10-21 15:54:00,
2014-10-21 10:04:00,57.0,27.0,-100.00,NNW,332,7.0,11.0,32,0.00,,,0.00,86.000000,,2014-10-21 16:04:00,
2014-10-21 10:13:00,57.0,27.0,-100.00,NNW,332,7.0,11.0,32,0.00,,,0.00,86.000000,,2014-10-21 16:13:00,
2014-10-21 10:21:00,62.0,29.0,-100.00,NNW,333,6.0,10.0,29,0.00,,,0.00,122.000000,,2014-10-21 16:21:00,
2014-10-21 10:53:00,62.0,29.0,-100.00,NNW,333,6.0,10.0,29,0.00,,,0.00,122.000000,,2014-10-21 16:53:00,
2014-10-21 11:03:00,62.0,29.0,-100.00,NNW,333,6.0,10.0,29,0.00,,,0.00,122.000000,,2014-10-21 17:03:00,
2014-10-21 11:12:00,62.0,29.0,-100.00,NNW,333,6.0,10.0,29,0.00,,,0.00,122.000000,,2014-10-21 17:12:00,
2014-10-21 11:53:00,61.0,32.0,-100.00,NW,321,6.0,10.0,33,0.00,,,0.00,93.000000,,2014-10-21 17:53:00,
2014-10-21 12:02:00,61.0,32.0,-100.00,NW,321,6.0,10.0,33,0.00,,,0.00,93.000000,,2014-10-21 18:02:00,